Flag for Belize Weather past 2 weeks in Belmopan, Belize

Now
79 °F

Thunderstorms. Partly cloudy.


Feels Like: 83 °F
Forecast: 73 / 95 °F
Wind: No wind

Location: Puerto Barrios Airport

Current Time: Jul 30, 2015 at 11:14:09 PM

Latest Report: Jul 30, 2015 at 10:00 PM


Visibility: N/A

Pressure: 30.01 "Hg

Humidity: 94%

Dew point: 77 °F

Location of BelmopanLocation

Historic Weather in Belmopan — Graph

°F

Belmopan temperature yesterday

Maximum temperature yesterday: 88 °F (at 10:00 AM)
Minimum temperature yesterday: 77 °F (at 6:00 AM)
Average temperature yesterday: 83 °F

Past Weeks' High & Low Weather Summary

 TemperatureHumidityPressure
High90 °F (Jul 17, 11:00 AM)100% (Jul 17, 6:00 AM)30.01 "Hg (Jul 17, 6:00 AM)
Low75 °F (Jul 18, 1:00 AM)59% (Jul 19, 3:00 PM)29.86 "Hg (Jul 16, 5:00 PM)
Average82 °F85%29.93 "Hg
* Reported Jul 15 10:00 PM — Jul 30 10:00 PM, Belmopan, Weather by CustomWeather, © 2015

Note: Actual official high and low records may vary slightly from our data, if they occured in-between our weather recording intervals... More about our weather records

Advertising

Belmopan weather history for previous 24 hours

 ConditionsComfort  
Time TempWeatherWind HumidityBarometerVisibility
10:00 PM
Thu, Jul 30
79 °FThunderstorms. Partly cloudy.No wind94%30.01 "HgN/A
9:00 PM79 °FThunderstorms. Passing clouds.No wind94%29.98 "HgN/A
8:00 PM77 °FThunderstorms. Partly cloudy.No wind100%29.98 "HgN/A
7:00 PM79 °FThunderstorms. Partly cloudy.No wind100%29.92 "HgN/A
6:00 PM82 °FThunderstorms. Broken clouds.No wind84%29.92 "Hg6 mi
5:00 PM84 °FThunderstorms. Scattered clouds.9 mph79%29.89 "HgN/A
4:00 PM88 °FThunderstorms. Scattered clouds.12 mph75%29.89 "HgN/A
3:00 PM90 °FThunderstorms. Scattered clouds.9 mph71%29.92 "HgN/A
2:00 PM88 °FThunderstorms. Scattered clouds.12 mph75%29.95 "HgN/A
1:00 PM88 °FScattered clouds.16 mph75%29.95 "HgN/A
12:00 PM88 °FScattered clouds.9 mph75%29.98 "HgN/A
11:00 AM84 °FScattered clouds.18 mph84%29.98 "HgN/A
10:00 AM84 °FScattered clouds.14 mph79%30.01 "HgN/A
9:00 AM81 °FScattered clouds.9 mph89%29.98 "HgN/A
8:00 AM77 °FThunderstorms. Broken clouds.7 mph94%29.98 "HgN/A
7:00 AM77 °FPartly sunny.No wind94%29.98 "HgN/A
6:00 AM75 °FScattered clouds.No wind100%29.95 "HgN/A
5:00 AM77 °FThunderstorms. Partly cloudy.No wind94%29.92 "HgN/A
4:00 AM77 °FThunderstorms. Mostly cloudy.No wind100%29.95 "Hg6 mi
3:00 AM77 °FStrong thunderstorms. Mostly cloudy.14 mph100%29.95 "Hg3 mi
2:00 AM77 °FThunderstorms. Partly cloudy.No wind100%29.95 "HgN/A
1:00 AM79 °FDrizzle. Overcast.No wind94%29.95 "HgN/A
12:00 AM79 °FRain. Mostly cloudy.No wind94%29.98 "Hg5 mi
11:00 PM
Wed, Jul 29
79 °FPassing clouds.No wind94%29.98 "HgN/A
Weather by CustomWeather, © 2015

See weather overviewHow to use our weather pages